Location: Congress Lake (historical)
(40.9778°N, 81.3298°W)
Time: 04:10:25
(UTC+00:00)

Daily predictions for brighter satellites

Satellite Brightness Start Highest point End
(mag) Time Altitude Azimuth Time Altitude Azimuth Time Altitude Azimuth
OAO 2 Rocket 4.2 00:02:08 10° SW 00:06:32 32° SSE 00:07:50 28° SE
SeaSat 1 3.0 00:11:24 37° ENE 00:11:38 37° NE 00:16:09 10° N
Cosmos 2219 3.1 00:06:42 10° NNW 00:12:30 84° ENE 00:17:55 12° SSE
USA 305 4.4 00:10:11 10° NNW 00:13:34 22° NNE 00:13:34 22° NNE
YAOGAN 1 2.5 00:11:05 10° SSE 00:15:25 83° WSW 00:19:46 10° NNW
USA 306 4.4 00:16:28 10° NNW 00:19:37 23° NNE 00:19:37 23° NNE
S3M 3.8 00:15:07 10° S 00:21:12 81° E 00:27:23 10° N
Cosmos 2082 4.0 00:16:57 10° NNW 00:22:26 44° ENE 00:22:40 43° ENE
Cosmos 1892 2.8 00:20:00 10° NNW 00:23:52 74° W 00:26:14 22° S
SL-4 R/B 3.9 00:21:57 10° NW 00:24:00 17° N 00:24:00 17° N
CZ-2C R/B 3.4 00:19:03 10° S 00:24:53 78° WSW 00:30:37 10° NNW
Cosmos 1315 Rocket 3.8 00:22:10 10° S 00:24:27 33° S 00:24:27 33° S
Cosmos 968 Rocket 3.3 00:21:14 10° NNW 00:26:29 78° ENE 00:28:17 41° SSE
Cosmos 1346 Rocket 3.1 00:25:12 10° N 00:28:23 56° N 00:28:23 56° N
Cosmos 2369 3.6 00:25:42 10° S 00:31:19 63° ESE 00:32:23 53° ENE
CRYOSAT 2 4.3 00:27:45 10° N 00:32:38 86° W 00:37:29 10° S
Atlas Centaur 2 3.8 00:25:29 10° SW 00:33:01 36° S 00:35:21 31° SE
Meteor 2-10 Rocket 3.7 00:29:04 10° SSW 00:34:27 74° W 00:39:39 10° N
Okean-O 4.1 00:32:36 10° SSW 00:36:42 37° W 00:40:51 10° NNW
ARGOS 3.0 00:36:35 56° SE 00:37:41 74° ENE 00:43:07 10° N
Cosmos 1486 Rocket 4.1 00:33:28 10° NNW 00:38:49 78° WSW 00:41:02 36° S
NOSS 3-3 (A) 3.7 00:34:01 10° SSW 00:39:43 86° ESE 00:41:50 44° NE
NOSS 3-3 (C) 3.7 00:34:05 10° SSW 00:39:51 86° ESE 00:41:58 44° NE
Meteor 2-1 Rocket 4.3 00:37:09 10° SSW 00:42:40 74° W 00:48:12 10° N
USA 215 4.0 00:42:31 34° NE 00:43:17 35° NNE 00:49:06 10° NW
MOS 1 Rocket 3.9 00:42:59 10° N 00:47:32 56° WNW 00:52:23 10° SSW
Cosmos 1503 Rocket 4.3 00:43:04 10° NNW 00:47:17 56° N 00:47:17 56° N
Cosmos 2227 Rocket 2.5 00:43:15 10° NNW 00:48:50 65° WSW 00:51:12 35° S
CSL-04 Rocket 4.1 00:47:18 10° S 00:52:47 61° WSW 00:58:16 10° NNW
ATLAS 2AS CENTAUR R/B 3.9 00:48:24 10° NNW 00:54:14 29° NNE 00:54:14 29° NNE
GEOS 3 Rocket 3.8 00:57:17 64° SSW 00:57:48 68° WSW 01:03:10 10° NW
Cosmos 2263 Rocket 4.1 00:53:10 10° N 00:54:45 16° NNE 00:54:45 16° NNE
Lacrosse 5 4.2 01:01:52 10° NNW 01:03:38 13° N 01:03:38 13° N
Cosmos 1697 Rocket 3.1 00:59:03 10° SW 01:04:34 60° WNW 01:06:00 46° N
H-2A R/B (2) 4.2 00:02:51 10° WSW 01:06:37 47° SSW 01:09:35 39° SSE
H-2A R/B 3.2 01:03:27 10° S 01:08:33 43° W 01:13:45 10° NNW
Cosmos 1980 Rocket 4.1 01:20:45 10° SSW 01:22:19 20° SSW 01:22:19 20° SSW
CZ-4C R/B 4.3 01:21:38 10° NNW 01:25:16 23° NNE 01:25:16 23° NNE
Cosmos 2297 Rocket 4.2 01:24:12 10° NW 01:28:39 24° WSW 01:32:04 14° SW
Milstar 3 4.2 01:30:30 10° WSW 01:34:44 27° SSW 01:34:44 27° SSW
NOSS 3-2 (C) 4.3 08:44:11 44° ENE 08:44:11 44° ENE 08:48:36 10° NE
Lacrosse 4 Rocket 4.0 08:57:05 17° NE 08:57:05 17° NE 08:58:10 10° NE
CENTAUR R/B 2.7 08:57:17 63° NE 08:57:17 63° NE 09:03:04 10° NE
CZ-2C R/B 3.3 09:01:09 10° NNE 09:05:23 46° ENE 09:05:23 46° ENE
Cosmos 1833 Rocket 3.9 09:08:55 20° SSE 09:12:11 39° ESE 09:17:23 10° NE
PAYLOAD A 4.4 09:08:11 10° NNE 09:12:41 62° ENE 09:12:41 62° ENE
In-Cosmos 22 4.4 09:14:21 59° NNE 09:14:21 59° NNE 09:18:48 10° NNE
Cosmos 1269 Rocket 4.2 09:17:07 68° ENE 09:17:07 68° ENE 09:21:57 10° NNE
Lacrosse 5 rocket 3.1 09:22:56 27° ENE 09:22:56 27° ENE 09:24:57 10° ENE
Cosmos 2142 Rocket 4.3 09:19:15 10° N 09:25:30 80° W 09:31:48 10° S
Cosmos 2344 3.7 09:27:00 50° WNW 09:27:27 51° NW 09:35:12 10° NNE
USA 238 DEB 4.0 09:29:27 46° NW 09:29:27 46° NW 09:35:43 10° NNE
USA 238 4.0 09:29:32 47° NW 09:29:32 47° NW 09:35:50 10° NNE
Cosmos 2082 Rocket 3.9 09:26:26 10° SSE 09:31:16 31° ESE 09:36:07 10° NE
Meteor 1-16 Rocket 4.0 09:27:35 10° N 09:32:56 82° E 09:38:15 10° S
NOSS 3-2 (A) 4.2 09:34:08 36° NNW 09:34:08 36° NNW 09:39:22 10° NNE
CZ-4B R/B 3.4 09:36:14 10° SE 09:39:17 30° ENE 09:42:21 10° N
Cosmos 1656 3.7 09:36:09 25° NNW 09:39:36 81° ENE 09:45:18 10° SSE
ATLAS 3B R/B 3.2 09:36:19 10° SSW 09:42:39 53° ESE 09:49:03 10° NE
COSMOS 2406 3.0 09:48:10 40° SW 09:50:16 78° WNW 09:55:58 10° NNE
Cosmos 2279 Rocket 3.9 09:44:27 10° NNW 09:50:31 58° W 09:56:33 10° S
Cosmos 292 Rocket 4.2 09:57:37 44° SW 09:57:37 44° SW 10:01:24 10° S
Cosmos 1697 Rocket 3.1 09:52:38 10° NNW 09:58:15 62° ENE 10:03:51 10° SE
ADEOS Rocket 2.7 09:54:11 10° S 09:59:34 55° W 10:05:00 10° NNW
BREEZE-M DEB (TANK) 2.1 10:04:38 51° SSE 10:04:38 51° SSE 10:06:23 10° SE
ERS-2 1.9 10:00:39 10° SSE 10:04:17 85° WSW 10:05:48 33° NNW
Cosmos 44 Rocket 3.3 10:04:23 30° NW 10:06:54 72° WSW 10:12:04 10° SSE
Cosmos 1908 3.5 10:08:35 47° SW 10:08:35 47° SW 10:11:43 10° S
SAR-Lupe-4 4.4 10:06:11 10° SSE 10:09:39 51° ENE 10:13:08 10° N
CBERS 1 LM4 rocket 4.4 10:06:26 10° N 10:11:13 53° WNW 10:14:27 19° SW
Abrixas rocket 3.8 10:11:30 21° N 10:11:34 21° NNE 10:13:51 10° ENE
FENGYUN 3A 3.6 10:06:53 10° NNE 10:12:22 89° WNW 10:17:48 10° SSW
Cosmos 1461 3.0 10:10:10 22° SSW 10:13:05 88° ESE 10:17:47 10° NNE
TELKOM 3 3.5 10:12:57 73° WSW 10:13:13 87° NW 10:16:58 10° ENE
Cosmos 2251 Rocket 3.8 10:11:51 10° S 10:17:10 70° ESE 10:22:30 10° NNE
SL-14 R/B 3.2 10:13:21 10° S 10:17:18 89° ESE 10:21:21 10° N
Cosmos 1689 Rocket 3.9 10:15:12 10° SE 10:17:52 32° ENE 10:20:31 10° N
ISS -3.6 10:19:03 50° NW 10:19:20 52° NNW 10:22:38 10° NE
Cosmos 1980 Rocket 3.1 10:14:43 10° NNW 10:20:09 49° ENE 10:25:34 10° SE
USA 290 2.5 10:19:11 10° S 10:22:21 67° ESE 10:25:34 10° NNE
SAR-Lupe-1 4.1 10:23:41 10° SSE 10:27:14 81° ENE 10:30:50 10° N
DELTA 2 R/B (1) 4.3 10:24:50 25° WSW 10:27:18 38° SSW 10:32:26 10° SE
Cosmos 1300 2.8 10:23:56 10° N 10:27:46 75° E 10:31:34 10° SSE
Cosmos 2360 4.2 10:26:06 10° NNW 10:31:50 90° WSW 10:37:30 10° SSE
Lacrosse 4 Rocket 2.8 10:33:26 19° NW 10:33:26 19° NW 10:36:13 10° N
ALOS 2.3 10:28:46 10° N 10:33:19 53° WNW 10:37:50 10° SSW
NOSS 3-2 (C) 4.5 10:31:39 21° WNW 10:33:53 26° NW 10:39:18 10° NNE
Cosmos 1726 Rocket 3.5 10:32:34 10° N 10:37:03 87° W 10:41:30 10° S
Cosmos 1484 Rocket 3.2 10:35:51 10° N 10:39:26 37° WNW 10:42:56 10° SW
Cosmos 1626 2.7 10:38:20 10° SW 10:41:42 33° WNW 10:45:06 10° N
CZ-2C R/B 3.7 10:40:18 10° NNW 10:43:47 19° WNW 10:44:45 18° W
Cosmos 2278 3.8 10:41:22 10° NNW 10:47:04 85° ENE 10:52:42 10° SSE
Aureole 3 3.8 10:43:21 10° N 10:47:31 82° E 10:52:51 10° S
CENTAUR R/B 3.8 10:44:29 17° WNW 10:47:50 25° NNW 10:53:35 10° NNE
H-2A R/B 4.2 10:44:53 10° NNE 10:48:32 42° E 10:52:11 10° S
Cosmos 2228 3.3 10:44:49 10° NNW 10:48:59 45° W 10:53:10 10° SSW
CZ-4B R/B 2.8 10:45:25 10° N 10:49:27 78° WNW 10:53:41 10° SSW
Cosmos 2322 Rocket 4.4 10:46:11 10° N 10:50:36 23° NE 10:54:58 10° ESE
Cosmos 1606 Rocket 3.9 10:47:50 10° NNW 10:52:07 45° W 10:56:22 10° SSW
ADEOS 4.1 10:47:27 10° N 10:52:13 36° WNW 10:56:57 10° SW
Cosmos 1092 Rocket 4.0 10:47:42 10° SSW 10:53:44 56° W 10:59:51 10° N
Cosmos 1833 Rocket 3.4 10:51:12 10° WSW 10:56:08 31° WNW 11:01:08 10° N
COSMO-SKYMED 1 2.5 10:52:12 10° S 10:56:30 65° WSW 11:00:50 10° NNW
Cosmos 967 Rocket 4.5 10:50:19 10° NW 10:56:35 69° WSW 11:02:46 10° SSE
Elektron 1 4.5 10:56:36 11° WSW 10:59:30 33° NW 11:02:10 10° NNE
Lacrosse 5 rocket 2.4 10:58:36 15° WNW 11:00:42 23° NNW 11:03:48 10° NNE
Meteor 1-24 Rocket 4.0 10:57:20 10° SSW 11:02:40 46° WNW 11:08:14 10° N
CZ-3 R/B 3.5 10:43:14 10° WSW 11:02:56 41° SSW 11:09:06 10° SE
Meteor 1-31 Rocket 3.7 11:00:07 10° N 11:03:29 28° WNW 11:06:51 10° SW
ATLAS CENTAUR R/B 3.7 11:01:00 10° S 11:04:20 26° ESE 11:07:32 10° ENE
Envisat 4.3 11:00:17 10° NNE 11:05:11 47° E 11:10:03 10° S
Meteor PRIRODA 3.7 11:02:42 10° N 11:06:16 51° WNW 11:09:50 10° SSW
Cosmos 407 Rocket 4.1 11:01:25 10° S 11:06:26 62° ESE 11:11:31 10° NNE
Meteor 2-10 Rocket 3.8 11:02:48 10° N 11:07:49 70° E 11:12:53 10° SSE
Cosmos 2369 4.2 11:04:50 10° NW 11:10:04 39° WSW 11:15:16 10° S
CZ-4B R/B 3.2 11:09:35 10° SW 11:11:35 15° W 11:13:35 10° WNW
Cosmos 1140 Rocket 4.3 11:09:04 10° S 11:14:04 58° ESE 11:19:06 10° NNE
Cosmos 2082 Rocket 2.7 11:10:02 10° SW 11:15:12 37° WNW 11:20:25 10° N
Okean 1-7 Rocket 3.8 11:11:23 10° SSW 11:15:47 49° W 11:20:12 10° N
PSLV R/B 3.9 11:12:08 10° NNE 11:16:17 88° W 11:20:23 10° SSW
Cosmos 1455 3.1 11:13:14 10° N 11:17:02 54° E 11:20:49 10° SSE
CZ-4B DEB 4.5 11:15:51 10° NNE 11:21:22 78° ESE 11:26:50 10° S
Cosmos 2058 Rocket 3.5 11:18:21 10° NNW 11:22:38 43° W 11:26:52 10° SSW
Meteor 2-1 Rocket 4.4 11:18:30 10° N 11:24:12 84° E 11:30:00 10° S
SL-27 R/B 3.9 11:21:34 10° S 11:24:59 45° ESE 11:28:28 10° NNE
SL-16 R/B 3.2 11:20:20 10° NNW 11:25:52 49° ENE 11:31:20 10° SE
